sat.trackr.live / text

‹ back to catalog

STARLINK-36058

NORAD 66591 · 2025-270D

PAYLOAD ACTIVE UNKNOWN

§ Identity

Operator
Country
US
Launch date
2025-11-22
Launch site
AFETR
Launch vehicle
Mass (kg)
RCS (m²)

Purposes: comms

External: N2YO · Heavens-Above · Gunter

§ Orbital elements

Epoch: 2026-09-20T20:35:36.038400Z

Period
94.27 min
Inclination
43.0007°
Eccentricity
0.0001284
Mean motion
15.27605814 rev/d
Perigee alt
482.1 km
Apogee alt
483.9 km
Semi-major
6,861.1 km
B*
4.4924e-4
RAAN
34.0303°
Arg perigee
272.3514°
Mean anomaly
87.7191°
Rev number
4,755

§ Raw data

STARLINK-360581 66591U 25270D   26263.85805600  .00012130  00000+0  44924-3 0  99962 66591  43.0007  34.0303 0001284 272.3514  87.7191 15.27605814 47558

JSON: /api/v1/satellites/66591 · /tle

For live sub-satellite position, see the globe view (requires WebGL).

§ Visibility from observer

Set your observer location to see the next 7 days of passes ≥ 10°. The values pass through the URL so the page stays shareable.

No JS? Fill the form by hand. The geolocation button needs JavaScript.